Location: Copper Breaks State Park
(34.1132°N, 99.7492°W)
Time: 17:31:33
(UTC-05:00)

Amateur Radio Satellites - All Passes

Search period start: 23 May 2017 17:01
Search period end: 24 May 2017 17:01
Location: Copper Breaks State Park, 34.1132°N, 99.7492°W

Satellite Date Start Highest point End Downlink Frequencies (MHz)
Time Altitude Azimuth
CUBESAT XI-V 23 May 17:13:50 17:16:42 16° 93° (E) 17:19:34 437.345
BEESAT 3 23 May 17:15:48 17:19:12 27° 248° (WSW) 17:22:34 437.485
ITUPSAT 1 23 May 17:24:16 17:28:35 34° 289° (WNW) 17:32:53 437.325
CUTE-I 23 May 17:45:52 17:47:07 11° 62° (ENE) 17:48:21 437.470
NO-84 23 May 17:47:21 17:50:23 25° 39° (NE) 17:53:11 435.350 FM
KKS-1 23 May 17:54:53 17:59:01 39° 99° (E) 18:03:10 437.445
LilacSat-2 23 May 17:58:40 17:59:45 11° 67° (ENE) 18:00:50 437.200
BEESAT 23 May 18:01:45 18:04:14 14° 295° (WNW) 18:06:44 436.000
DOVE 4 23 May 18:09:13 18:13:31 34° 73° (ENE) 18:17:36 437.250
AO-7 23 May 18:12:03 18:17:07 17° 266° (W) 18:22:14 .
MOZHAYETS 4 23 May 18:14:18 18:17:18 17° 292° (WNW) 18:20:17
BEESAT 2 23 May 18:26:25 18:28:18 13° 252° (WSW) 18:30:10 435.950
XW-2D 23 May 18:34:42 18:38:04 31° 73° (ENE) 18:41:29 145.860 - 145.880
STARS 23 May 18:35:33 18:39:46 46° 100° (E) 18:43:59 437.465
XW-2B 23 May 18:42:23 18:45:54 38° 74° (ENE) 18:49:27 145.730 - 145.750
CUBESAT XI-V 23 May 18:49:52 18:54:12 39° 287° (WNW) 18:58:28 437.345
XW-2C 23 May 18:55:37 18:59:20 60° 76° (ENE) 19:03:07 145.795 - 145.815
XW-2F 23 May 18:57:17 19:00:59 60° 76° (ENE) 19:04:44 145.980 - 146.000
NUDT-PHONESAT 23 May 19:07:05 19:10:44 64° 76° (ENE) 19:14:25 437.300
KAITUO 1B 23 May 19:10:41 19:14:25 74° 77° (ENE) 19:18:12 145.475/437.950
CUTE-I 23 May 19:21:05 19:26:24 81° 257° (WSW) 19:31:44 437.470
NO-84 23 May 19:25:12 19:27:45 20° 237° (WSW) 19:30:08 435.350 FM
LilacSat-2 23 May 19:29:59 19:33:35 41° 261° (W) 19:37:15 437.200
HO-68 23 May 19:31:34 19:38:03 39° 67° (ENE) 19:44:34 435.675
KKS-1 23 May 19:32:34 19:35:14 16° 293° (WNW) 19:37:54 437.445
DOVE 4 23 May 19:47:50 19:51:11 19° 264° (W) 19:54:26 437.250
CUTE 1.7 + AOD 2 23 May 19:52:16 19:56:09 35° 73° (ENE) 20:00:04 437.475
CUBEBUG 2 23 May 19:56:24 19:59:05 17° 69° (ENE) 20:01:49 437.445
XW-2D 23 May 20:10:28 20:12:19 13° 267° (W) 20:14:11 145.860 - 145.880
STARS 23 May 20:13:35 20:15:40 13° 294° (WNW) 20:17:44 437.465
UWE-3 23 May 20:14:00 20:16:34 16° 68° (ENE) 20:19:11 435.000/436.395/437.385
XW-2B 23 May 20:19:16 20:20:13 11° 268° (W) 20:21:11 145.730 - 145.750
AAUSAT CUBESAT 2 23 May 20:23:09 20:26:25 23° 71° (ENE) 20:29:43 437.432
PCSat 23 May 20:25:00 20:30:17 58° 112° (ESE) 20:35:37 145.827
STRAND 1 23 May 20:27:42 20:32:21 34° 98° (E) 20:36:59 437.568
XW-2A 23 May 20:30:34 20:33:53 76° 259° (W) 20:37:15 145.665 - 145.685
SEEDS 23 May 20:47:38 20:51:52 76° 259° (W) 20:56:09 437.485
Oscar 11 23 May 20:59:30 21:02:53 23° 70° (ENE) 21:06:17 .
HO-68 23 May 21:19:18 21:25:41 35° 262° (W) 21:32:09 435.675
AO-73 23 May 21:21:16 21:25:17 50° 75° (ENE) 21:29:25 145.935
CUTE 1.7 + AOD 2 23 May 21:29:31 21:32:03 15° 267° (W) 21:34:37 437.475
CUBEBUG 2 23 May 21:31:49 21:35:26 30° 263° (W) 21:39:08 437.445
ZACube-1 23 May 21:33:06 21:37:16 82° 75° (ENE) 21:41:31 437.345
UWE-3 23 May 21:49:00 21:52:43 32° 263° (W) 21:56:31 435.000/436.395/437.385
ISS 23 May 21:50:43 21:53:55 51° 134° (SE) 21:57:08 437.550
Tancredo 1 23 May 21:51:08 21:54:12 85° 318° (NW) 21:57:17 437.200
M-CUBED/EXP-1 PRIME 23 May 21:55:11 21:58:21 44° 105° (ESE) 22:01:27 437.505
AAUSAT CUBESAT 2 23 May 21:58:23 22:01:44 23° 264° (W) 22:05:06 437.432
EO-88 23 May 22:04:57 22:07:41 20° 71° (ENE) 22:10:26 145.990 - 145.960
STRAND 1 23 May 22:07:15 22:11:18 24° 292° (WNW) 22:15:22 437.568
PCSat 23 May 22:10:23 22:14:02 18° 309° (NW) 22:17:44 145.827
SO-50 23 May 22:33:41 22:34:01 10° 107° (ESE) 22:34:22 436.795
Oscar 11 23 May 22:35:17 22:38:51 25° 264° (W) 22:42:27 .
DELFI C3 23 May 22:46:00 22:49:59 71° 258° (WSW) 22:53:58 145.870
FO-29 23 May 22:47:10 22:52:43 28° 97° (E) 22:58:46 435.910
LO-87 23 May 23:00:33 23:01:48 12° 69° (ENE) 23:03:03 145.935 - 145.965
TIGRISAT 23 May 23:03:37 23:07:38 29° 97° (E) 23:11:40 435.000
PRISM 23 May 23:05:39 23:09:29 40° 99° (E) 23:13:17 437.425
ISS 23 May 23:28:29 23:30:37 16° 329° (NNW) 23:32:44 437.550
Tancredo 1 23 May 23:30:00 23:30:22 10° 333° (NNW) 23:30:45 437.200
UNISAT 6 23 May 23:33:53 23:38:30 72° 102° (ESE) 23:43:09 437.425
EO-88 23 May 23:38:37 23:41:14 19° 265° (W) 23:43:53 145.990 - 145.960
ESTCUBE 1 23 May 23:55:54 00:00:06 39° 73° (ENE) 00:04:20 437.505/2401.250
SO-50 24 May 00:09:19 00:13:54 66° 300° (WNW) 00:18:26 436.795
LO-87 24 May 00:31:41 00:34:54 32° 262° (W) 00:38:07 145.935 - 145.965
FO-29 24 May 00:31:42 00:37:44 44° 288° (WNW) 00:44:27 435.910
AIST 2D 24 May 00:34:54 00:38:16 39° 99° (E) 00:41:36 435.315
TIGRISAT 24 May 00:40:32 00:44:06 23° 290° (WNW) 00:47:43 435.000
PRISM 24 May 00:42:32 00:44:22 13° 293° (WNW) 00:46:12 437.425
EO-79 24 May 00:42:44 00:46:08 23° 96° (E) 00:49:33 145.935-145.965
VELOX 1 24 May 01:05:23 01:09:44 59° 75° (ENE) 01:14:05 145.980
SPROUT 24 May 01:23:33 01:27:46 83° 255° (WSW) 01:32:01 437.525
NANOSAT C BR1 24 May 01:29:21 01:33:37 81° 102° (ESE) 01:37:52 145.865
POLYITAN 1 24 May 01:30:52 01:35:09 87° 281° (WNW) 01:39:26 437.675
ESTCUBE 1 24 May 01:34:14 01:37:00 16° 266° (W) 01:39:46 437.505/2401.250
QB50P2 24 May 01:39:24 01:43:37 62° 285° (WNW) 01:47:50 145.880/145.840
DUCHIFAT 1 24 May 01:41:49 01:46:04 80° 283° (WNW) 01:50:18 145.980
UKube-1 24 May 01:50:08 01:54:12 42° 73° (ENE) 01:58:17 .
DX 1 24 May 01:51:09 01:55:28 68° 75° (ENE) 01:59:47 434.975-435.025
Oscar 19 24 May 01:56:08 01:58:41 14° 93° (E) 02:01:13 437.125/150
50 SAT 24 May 02:08:25 02:11:37 35° 261° (W) 02:14:50 437.505
BUGSAT 1 24 May 02:12:35 02:16:41 66° 101° (ESE) 02:20:50 437.445
YUBILEINY 24 May 02:12:43 02:21:13 62° 91° (E) 02:29:47 435.215
EO-79 24 May 02:18:22 02:21:46 24° 290° (WNW) 02:25:10 145.935-145.965
RS-15 24 May 02:35:40 02:46:42 46° 107° (ESE) 02:58:03 29.354- 29.394
Gurwin Techsat 1B 24 May 02:46:51 02:51:22 28° 97° (E) 02:55:52 435.225
ITUPSAT 1 24 May 02:51:01 02:53:58 17° 66° (ENE) 02:56:55 437.325
BEESAT 24 May 03:24:57 03:29:20 39° 72° (ENE) 03:33:45 436.000
UKube-1 24 May 03:28:22 03:30:22 13° 266° (W) 03:32:24 .
Oscar 19 24 May 03:33:15 03:38:18 56° 286° (WNW) 03:43:18 437.125/150
MOZHAYETS 4 24 May 03:34:38 03:38:21 25° 70° (ENE) 03:42:04
YUBILEINY 24 May 04:11:46 04:18:31 25° 289° (WNW) 04:25:19 435.215
CUBESAT XI-V 24 May 04:15:07 04:16:31 11° 65° (ENE) 04:17:54 437.345
Tancredo 1 24 May 04:19:38 04:21:49 18° 33° (NNE) 04:24:00 437.200
AO-7 24 May 04:21:50 04:29:12 34° 99° (E) 04:36:31 .
ISS 24 May 04:22:27 04:24:20 14° 30° (NNE) 04:26:12 437.550
Gurwin Techsat 1B 24 May 04:26:38 04:31:13 30° 291° (WNW) 04:35:48 435.225
ITUPSAT 1 24 May 04:26:52 04:31:23 43° 260° (W) 04:35:57 437.325
ITAMSAT 1 24 May 04:28:22 04:33:08 35° 98° (E) 04:37:51 435.822/435.867
JUGNU 24 May 04:45:30 04:48:32 14° 167° (SSE) 04:51:36 437.505
RS-15 24 May 04:47:21 04:58:59 51° 307° (NW) 05:10:58 29.354- 29.394
KKS-1 24 May 04:49:40 04:53:10 23° 69° (ENE) 04:56:39 437.445
O/OREOS (USA 219) 24 May 04:59:10 05:03:34 47° 105° (ESE) 05:07:58 437.305
BEESAT 24 May 05:04:04 05:07:13 17° 266° (W) 05:10:21 436.000
MOZHAYETS 4 24 May 05:11:32 05:15:21 26° 264° (W) 05:19:12
PCSat 24 May 05:17:18 05:21:29 22° 54° (NE) 05:25:37 145.827
STARS 24 May 05:28:46 05:32:22 26° 70° (ENE) 05:35:59 437.465
AO-85 24 May 05:47:35 05:51:49 58° 116° (ESE) 05:55:48 145.980
CUBESAT XI-V 24 May 05:48:37 05:53:17 64° 259° (W) 05:57:58 437.345
Tancredo 1 24 May 05:54:50 05:57:39 34° 228° (SW) 06:00:27 437.200
ISS 24 May 05:57:52 06:01:06 61° 226° (SW) 06:04:18 437.550
ITAMSAT 1 24 May 06:08:16 06:12:20 24° 292° (WNW) 06:16:25 435.822/435.867
AO-7 24 May 06:14:08 06:22:00 48° 294° (WNW) 06:29:53 .
KKS-1 24 May 06:25:52 06:29:34 26° 263° (W) 06:33:16 437.445
JUGNU 24 May 06:32:38 06:36:52 20° 177° (S) 06:41:05 437.505
BEESAT 2 24 May 06:35:48 06:38:27 17° 110° (ESE) 06:41:08 435.950
O/OREOS (USA 219) 24 May 06:40:36 06:43:12 15° 301° (WNW) 06:45:48 437.305
PCSat 24 May 06:59:54 07:05:03 45° 250° (WSW) 07:10:10 145.827
BEESAT 3 24 May 07:01:06 07:04:59 68° 299° (WNW) 07:08:58 437.485
STARS 24 May 07:05:13 07:08:37 22° 264° (W) 07:12:01 437.465
LilacSat-2 24 May 07:07:01 07:10:17 25° 96° (E) 07:13:31 437.200
RS-15 24 May 07:08:16 07:15:32 17° 337° (NNW) 07:22:52 29.354- 29.394
SRMSAT 24 May 07:08:20 07:10:53 13° 166° (SSE) 07:13:26 437.500
AO-85 24 May 07:31:03 07:32:28 11° 311° (NW) 07:33:52 145.980
STRAND 1 24 May 07:40:01 07:44:31 33° 70° (ENE) 07:49:03 437.568
CUTE-I 24 May 07:41:56 07:47:10 55° 101° (E) 07:52:23 437.470
XW-2D 24 May 07:44:20 07:48:12 83° 103° (ESE) 07:52:02 145.860 - 145.880
DOVE 4 24 May 07:48:40 07:52:41 49° 285° (WNW) 07:56:47 437.250
XW-2B 24 May 07:52:12 07:56:04 81° 283° (WNW) 07:59:53 145.730 - 145.750
XW-2C 24 May 08:05:49 08:09:34 50° 285° (WNW) 08:13:17 145.795 - 145.815
XW-2F 24 May 08:06:59 08:10:43 51° 284° (WNW) 08:14:25 145.980 - 146.000
BEESAT 2 24 May 08:12:25 08:15:56 30° 304° (NW) 08:19:31 435.950
NUDT-PHONESAT 24 May 08:14:49 08:18:29 50° 284° (WNW) 08:22:07 437.300
KAITUO 1B 24 May 08:19:27 08:23:04 43° 285° (WNW) 08:26:39 145.475/437.950
JUGNU 24 May 08:21:16 08:25:13 18° 188° (S) 08:29:09 437.505
SEEDS 24 May 08:35:46 08:39:06 23° 95° (E) 08:42:24 437.485
M-CUBED/EXP-1 PRIME 24 May 08:36:47 08:40:47 36° 69° (ENE) 08:44:33 437.505
LilacSat-2 24 May 08:41:43 08:44:20 18° 290° (WNW) 08:46:56 437.200
SO-50 24 May 08:44:13 08:48:25 37° 56° (NE) 08:52:37 436.795
HO-68 24 May 08:50:07 08:57:12 57° 102° (ESE) 09:04:13 435.675
SRMSAT 24 May 08:55:14 08:59:21 19° 175° (S) 09:03:28 437.500
NO-84 24 May 09:00:54 09:04:08 20° 123° (ESE) 09:07:21 435.350 FM
AO-73 24 May 09:14:04 09:16:32 14° 93° (E) 09:18:59 145.935
CUTE 1.7 + AOD 2 24 May 09:16:02 09:20:16 67° 284° (WNW) 09:24:28 437.475
STRAND 1 24 May 09:19:39 09:23:40 23° 264° (W) 09:27:43 437.568
CUTE-I 24 May 09:23:30 09:26:42 16° 295° (WNW) 09:29:54 437.470
CUBEBUG 2 24 May 09:24:58 09:29:33 69° 101° (E) 09:34:13 437.445
ZACube-1 24 May 09:25:26 09:28:59 22° 95° (E) 09:32:31 437.345
XW-2A 24 May 09:28:34 09:31:48 39° 285° (WNW) 09:35:03 145.665 - 145.685
RS-15 24 May 09:29:52 09:35:49 14° 15° (NNE) 09:41:42 29.354- 29.394
UWE-3 24 May 09:41:10 09:45:44 62° 101° (E) 09:50:19 435.000/436.395/437.385
AAUSAT CUBESAT 2 24 May 09:43:07 09:47:15 70° 101° (ESE) 09:51:20 437.432
PRISM 24 May 09:51:57 09:54:48 18° 69° (ENE) 09:57:38 437.425
TIGRISAT 24 May 10:00:00 10:02:29 15° 67° (ENE) 10:04:58 435.000
SEEDS 24 May 10:11:19 10:14:40 23° 289° (WNW) 10:17:59 437.485
M-CUBED/EXP-1 PRIME 24 May 10:12:23 10:15:11 17° 259° (W) 10:17:53 437.505
JUGNU 24 May 10:12:36 10:13:30 10° 197° (SSW) 10:14:25 437.505
Oscar 11 24 May 10:25:10 10:29:32 77° 101° (E) 10:33:52 .
SO-50 24 May 10:25:27 10:28:34 19° 250° (WSW) 10:31:42 436.795
DELFI C3 24 May 10:27:38 10:30:21 18° 95° (E) 10:33:03 145.870
UNISAT 6 24 May 10:29:15 10:33:10 37° 73° (ENE) 10:37:07 437.425
NO-84 24 May 10:37:18 10:41:31 45° 316° (NW) 10:45:38 435.350 FM
HO-68 24 May 10:38:52 10:44:23 24° 298° (WNW) 10:49:52 435.675
FO-29 24 May 10:40:58 10:46:02 52° 73° (ENE) 10:51:05 435.910
SRMSAT 24 May 10:43:49 10:47:51 19° 186° (S) 10:51:53 437.500
AO-73 24 May 10:48:34 10:52:53 44° 286° (WNW) 10:57:13 145.935
ZACube-1 24 May 11:01:16 11:05:11 29° 288° (WNW) 11:09:06 437.345
EO-88 24 May 11:09:53 11:13:26 43° 99° (E) 11:16:56 145.990 - 145.960
UWE-3 24 May 11:20:17 11:21:37 11° 294° (WNW) 11:22:58 435.000/436.395/437.385
PRISM 24 May 11:26:13 11:29:50 29° 262° (W) 11:33:27 437.425
EO-79 24 May 11:33:42 11:34:50 11° 66° (ENE) 11:35:59 145.935-145.965
TIGRISAT 24 May 11:34:54 11:38:49 36° 262° (W) 11:42:47 435.000
RS-15 24 May 11:42:06 11:53:21 40° 48° (NE) 12:04:01 29.354- 29.394
ESTCUBE 1 24 May 11:54:42 11:55:42 11° 92° (E) 11:56:42 437.505/2401.250
DELFI C3 24 May 12:01:50 12:05:04 25° 288° (WNW) 12:08:18 145.870
LO-87 24 May 12:02:21 12:05:10 22° 96° (E) 12:08:00 145.935 - 145.965
UNISAT 6 24 May 12:07:39 12:09:59 14° 267° (W) 12:12:21 437.425
NANOSAT C BR1 24 May 12:17:44 12:21:29 34° 73° (ENE) 12:25:16 145.865
POLYITAN 1 24 May 12:19:35 12:23:29 40° 73° (ENE) 12:27:26 437.675
QB50P2 24 May 12:27:53 12:31:59 57° 75° (ENE) 12:36:06 145.880/145.840
YUBILEINY 24 May 12:28:28 12:35:23 25° 71° (ENE) 12:42:14 435.215
FO-29 24 May 12:28:57 12:31:29 13° 267° (W) 12:33:59 435.910
DUCHIFAT 1 24 May 12:29:42 12:33:37 42° 74° (ENE) 12:37:34 145.980
SRMSAT 24 May 12:34:18 12:36:18 12° 195° (SSW) 12:38:18 437.500
AIST 2D 24 May 12:38:14 12:41:35 44° 261° (W) 12:44:58 435.315
BUGSAT 1 24 May 12:59:01 13:02:20 26° 71° (ENE) 13:05:40 437.445
VELOX 1 24 May 13:00:32 13:02:58 15° 94° (E) 13:05:24 145.980
EO-79 24 May 13:06:03 13:10:06 51° 260° (W) 13:14:11 145.935-145.965
Oscar 19 24 May 13:09:33 13:12:25 15° 65° (ENE) 13:15:19 437.125/150
SPROUT 24 May 13:13:31 13:16:48 21° 96° (E) 13:20:05 437.525
ESTCUBE 1 24 May 13:28:23 13:32:47 55° 285° (WNW) 13:37:10 437.505/2401.250
50 SAT 24 May 13:35:47 13:37:54 16° 95° (E) 13:40:01 437.505
LO-87 24 May 13:36:08 13:38:25 16° 290° (WNW) 13:40:41 145.935 - 145.965
DX 1 24 May 13:44:20 13:46:53 15° 94° (E) 13:49:26 434.975-435.025
RS-15 24 May 13:54:34 14:06:16 59° 249° (WSW) 14:17:22 29.354- 29.394
NANOSAT C BR1 24 May 13:54:51 13:57:15 15° 266° (W) 13:59:42 145.865
POLYITAN 1 24 May 13:57:32 13:59:25 13° 267° (W) 14:01:19 437.675
Gurwin Techsat 1B 24 May 14:04:17 14:08:54 31° 70° (ENE) 14:13:32 435.225
DUCHIFAT 1 24 May 14:07:52 14:09:27 12° 267° (W) 14:11:02 145.980
AO-85 24 May 14:22:43 14:25:28 17° 52° (NE) 14:28:18 145.980
YUBILEINY 24 May 14:24:00 14:32:39 62° 269° (W) 14:41:18 435.215
BUGSAT 1 24 May 14:34:51 14:37:38 18° 265° (W) 14:40:27 437.445
VELOX 1 24 May 14:35:27 14:39:32 39° 287° (WNW) 14:43:35 145.980
Oscar 19 24 May 14:46:06 14:51:12 57° 259° (W) 14:56:20 437.125/150
SPROUT 24 May 14:49:06 14:52:37 26° 289° (WNW) 14:56:08 437.525
50 SAT 24 May 15:08:07 15:10:41 20° 288° (WNW) 15:13:14 437.505
O/OREOS (USA 219) 24 May 15:12:54 15:17:16 47° 67° (ENE) 15:21:35 437.305
UKube-1 24 May 15:16:21 15:20:36 59° 285° (WNW) 15:24:48 .
AO-7 24 May 15:17:04 15:24:14 34° 62° (ENE) 15:31:25 .
DX 1 24 May 15:19:11 15:23:09 36° 288° (WNW) 15:27:06 434.975-435.025
BEESAT 3 24 May 15:21:52 15:24:56 21° 53° (NE) 15:27:58 437.485
BEESAT 24 May 15:30:22 15:32:38 13° 93° (E) 15:34:54 436.000
ITAMSAT 1 24 May 15:42:42 15:47:25 37° 70° (ENE) 15:52:08 435.822/435.867
Gurwin Techsat 1B 24 May 15:44:21 15:48:46 27° 264° (W) 15:53:13 435.225
AO-85 24 May 16:02:07 16:05:55 37° 246° (WSW) 16:09:56 145.980
ITUPSAT 1 24 May 16:30:41 16:35:28 63° 102° (ESE) 16:40:13 437.325
BEESAT 2 24 May 16:32:57 16:36:51 44° 58° (ENE) 16:40:42 435.950
O/OREOS (USA 219) 24 May 16:54:22 16:56:08 12° 262° (W) 16:57:56 437.305
